TimeEDT,TemperatureF,Dew PointF,Humidity,Sea Level PressureIn,VisibilityMPH,Wind Direction,Wind SpeedMPH,Gust SpeedMPH,PrecipitationIn,Events,Conditions,WindDirDegrees,DateUTC
12:54 AM,39.0,37.9,96,30.19,10.0,Calm,Calm,-,N/A,,Clear,0,2013-09-18 04:54:00
1:54 AM,39.0,37.0,93,30.18,10.0,Calm,Calm,-,N/A,,Clear,0,2013-09-18 05:54:00
2:54 AM,37.9,36.0,93,30.17,10.0,Calm,Calm,-,N/A,,Clear,0,2013-09-18 06:54:00
3:54 AM,37.0,35.1,93,30.15,10.0,Calm,Calm,-,N/A,,Clear,0,2013-09-18 07:54:00
4:54 AM,39.0,37.0,93,30.14,10.0,Calm,Calm,-,N/A,,Clear,0,2013-09-18 08:54:00
5:54 AM,37.0,36.0,96,30.13,10.0,Calm,Calm,-,N/A,,Clear,0,2013-09-18 09:54:00
6:54 AM,37.9,36.0,93,30.14,10.0,Calm,Calm,-,N/A,,Clear,0,2013-09-18 10:54:00
7:54 AM,39.9,39.0,97,30.14,10.0,Calm,Calm,-,N/A,,Clear,0,2013-09-18 11:54:00
8:54 AM,51.1,46.9,86,30.13,10.0,Calm,Calm,-,N/A,,Clear,0,2013-09-18 12:54:00
9:54 AM,57.0,48.9,74,30.12,10.0,SSE,4.6,-,N/A,,Mostly Cloudy,160,2013-09-18 13:54:00
10:54 AM,62.1,50.0,65,30.11,10.0,SE,4.6,-,0.00,,Scattered Clouds,140,2013-09-18 14:54:00
11:54 AM,68.0,51.1,55,30.08,10.0,South,5.8,-,N/A,,Mostly Cloudy,180,2013-09-18 15:54:00
12:54 PM,70.0,51.1,51,30.07,10.0,SSW,9.2,-,0.00,,Mostly Cloudy,210,2013-09-18 16:54:00
1:54 PM,72.0,52.0,49,30.05,10.0,SSW,8.1,-,0.00,,Mostly Cloudy,210,2013-09-18 17:54:00
2:54 PM,72.0,51.1,48,30.03,10.0,SSW,8.1,-,N/A,,Mostly Cloudy,210,2013-09-18 18:54:00
3:54 PM,72.0,52.0,49,30.01,10.0,SSW,4.6,-,0.00,,Overcast,200,2013-09-18 19:54:00
4:54 PM,71.1,51.1,49,29.99,10.0,South,5.8,-,N/A,,Overcast,190,2013-09-18 20:54:00
5:54 PM,71.1,53.1,53,29.98,10.0,SSE,4.6,-,N/A,,Overcast,160,2013-09-18 21:54:00
6:54 PM,69.1,55.0,61,29.97,10.0,SSE,4.6,-,N/A,,Overcast,150,2013-09-18 22:54:00
7:54 PM,68.0,55.0,63,29.96,10.0,Calm,Calm,-,N/A,,Overcast,0,2013-09-18 23:54:00
8:54 PM,66.0,57.9,75,29.97,10.0,Calm,Calm,-,N/A,,Overcast,0,2013-09-19 00:54:00
9:54 PM,66.0,55.9,70,29.97,10.0,Calm,Calm,-,N/A,,Overcast,0,2013-09-19 01:54:00
10:54 PM,66.0,55.0,68,29.96,10.0,SSE,3.5,-,N/A,,Overcast,160,2013-09-19 02:54:00
11:54 PM,66.0,55.0,68,29.96,10.0,SE,4.6,-,N/A,,Overcast,140,2013-09-19 03:54:00